COSMOS 2251 DEB, 34321

Orbit data source: Space-Track

COSMOS 2251 DEB, 34321 is space debris in LEO originally from a launch on Wed, 16 Jun 1993 UTC launched from the Plesetsk Missile And Space Complex (PKMTR). The debris from Iridium 33, an American commercial communications satellite, has been tracked extensively since its accidental collision with the defunct Russian satellite Cosmos 2251 in 2009. This event, occurring at high speed in low Earth orbit (LEO), generated thousands of pieces of space debris, significantly increasing the risk of further collisions. The Iridium 33 debris cloud has impacted space traffic management and orbital debris mitigation strategies, making it a subject of ongoing study in space situational awareness.

Loading next visibility...
Identifier
34321, 1993-036NT
Orbit
LEO
Country
Flag of CISCIS
Related business
Manufacturer
Unknown
Mission
Spacecraft
Bus & Motor
Unknown
Mass
Unknown
Launch date (UTC)
1993-06-16 (33 years ago)
Launch vehicle
Unknown
Launch site
Plesetsk Missile And Space Complex (PKMTR)
Object type
Payload
Rocket body
Debris
Shape & HBR
Unknown shape, 0.1 m
Radar Cross Section
Small (<0.1 m²)

Expand to show TLE details & history
Last TLE update: 22 hours ago

TLE from 22 hours ago
0 COSMOS 2251 DEB
1 34321U 93036NT  26134.54281520  .00000871  00000-0  22818-3 0  9997
2 34321  74.0286 229.0997 0015848 320.0017  60.5886 14.50713347907025
Epoch: 2026-05-14T13:01Z
TLE epoch observation values (Epoch: 2026-05-14T13:01:39.233Z)
Latitude
19.92231°
Longitude
167.32125°
Altitude
720.009 km
Speed
7.5 km/s
True Right ascension
15h 40m 05s
True Declination
19° 48' 43"
Sunlit
Object was in full shadow at epoch
Visualization orbit readout
Latitude
Unknown
Longitude
Unknown
Altitude
Unknown
Speed
Unknown
Apparent Right ascension
Unknown
Apparent Declination
Unknown
Sunlit
N/A
Visualization observer readout
Local Sidereal Time
19:38:28
Azimuth
Unknown
Elevation
Unknown
Doppler factor
Unknown
Orbital elements
Apogee altitude
732.179 km
Perigee altitude
709.677 km
Semi-major axis
7,099.065 km
Eccentricity
0.00158
Inclination
74.0286°
RAAN
229.0997°
Arg. of periapsis
320.0017°
True anomaly
60.74695°
Mean anomaly
60.5886°
Eccentric anomaly
60.66776°
Mean motion
3.62862 °/min
Orbital period
99.21 mins
BSTAR
0.00022818
Loading maneuver chart data...
Computing Atmospheric mass density...

Documentation

Showing up to 5 results
|